Weather Roundup
Issued by NWS Chicago, IL

Home | Current Version | Previous Version | Text Only | Print | Product List | Glossary Off
Versions: 1 2 3 4 5 6 7 8 9 10 11 12 13 14 15 16 17 18 19 20 21 22 23 24 25 26 27 28 29 30 31 32 33 34 35 36 37 38 39 40 41 42 43 44 45 46 47 48 49 50

000
NZUS59 KLOT 230309
HRRLOT

CHICAGO AREA WEATHER ROUNDUP
NATIONAL WEATHER SERVICE CHICAGO/ROMEOVILLE IL
1000 PM CDT SUN OCT 22 2017

NOTE: "FAIR" INDICATES FEW OR NO CLOUDS BELOW 12,000 FEET WITH NO
SIGNIFICANT WEATHER AND/OR OBSTRUCTIONS TO VISIBILITY.

* THESE STATIONS ARE NOT UNDER NWS QUALITY CONTROL. THEY ALSO MAY NOT
  REPORT WEATHER SUCH AS PRECIPITATION OR FOG.

ILZ005-006-012>014-019>023-230400-
NORTHEAST ILLINOIS

CITY           SKY/WX    TMP DP  RH WIND       PRES   REMARKS
OHARE          LGT RAIN  52  50  93 NW7       30.04R
MIDWAY         LGT RAIN  53  53 100 N8        30.03R
AURORA         LGT RAIN  51  51 100 NW3       30.06S FOG
LANSING*       HVY RAIN  53  53 100 N5        30.02S
JOLIET*        LGT RAIN  53  53  99 N6        30.04F
WAUKEGAN       LGT RAIN  51  50  96 CALM      30.04S
DUPAGE AIRPORT LGT RAIN  51  51 100 N5        30.05R
WHEELING       CLOUDY    52  51  97 NW6       30.05S
KANKAKEE*      HVY RAIN  52  52  99 N9        30.02F
MORRIS*        RAIN      52  50  95 N3        30.03F
LEWIS AIRPORT* RAIN      51  50  97 NW7       30.05R
NORTHERLY ISL    N/A     54  52  93 N7          N/A
$$

WIZ051-052-058>065-066-070>072-230400-
SOUTHEAST WISCONSIN

CITY           SKY/WX    TMP DP  RH WIND       PRES   REMARKS
MILWAUKEE      CLOUDY    52  51  97 NW5       30.04F
KENOSHA*       CLOUDY    51  49  92 NW3       30.04F
RACINE*        CLOUDY    51  50  96 NW3       30.05F
BURLINGTON     CLOUDY    49  49 100 CALM      30.04F
WEST BEND      LGT RAIN  48  48 100 CALM      30.03F
$$

INZ001>003-010>013-019-020-230400-
NORTHWEST INDIANA

CITY           SKY/WX    TMP DP  RH WIND       PRES   REMARKS
GARY*          RAIN      55  55 100 N12       30.03F
MICHIGAN CITY* NOT AVBL
RENSSELAER*    NOT AVBL
VALPARAISO     LGT RAIN  56  55  97 N6        30.01F
$$

LMZ740>746-230400-
SOUTHERN LAKE MICHIGAN

STATION/POSITION TIME  SKY/WX   TEMP WIND        PRES    VSBY
                                AIR  DIR/SP/G
                 (UTC)          (F)  (DEG/KT/KT) (MB)    (MI)
HARRISON CRIB    0240            56   20/ 13/ 14   N/A
BURNHAM HARBOR   0300            54  340/  7/ 13   N/A
CALUMET HARBOR   0248            55  360/  8/ 10 1016.2R
BURNS HARBOR     0240            56   30/ 14/ 16 1016.9S
MICHIGAN CITY    0240            56   10/ 15/ 16   N/A
$$

ABBREVIATIONS USED IN REMARKS
   TC - TEMPERATURE IN CELSIUS
  WCI - WIND CHILL INDEX
   HX - HEAT INDEX
  VSB - VISIBILITY
$$




USA.gov is the U.S. government's official web portal to all federal, state and local government web resources and services.